Location: Newark
(51.0500°N, 12.4500°E)
Time: 03:55:02
(UTC+00:00)

Tiros 1 despin weight - All Passes

Search period start: 27 February 2020 00:00
Search period end: 08 March 2020 00:00
Orbit: 594 x 642 km, 48.2° (Epoch: 25 February)

Date Brightness Start Highest point End Pass type
(mag) Time Alt. Az. Time Alt. Az. Time Alt. Az.
27 Feb - 00:10:05 10° WSW 00:14:29 59° S 00:18:50 10° E night (unlit)
27 Feb - 01:51:28 10° W 01:55:46 50° SSW 02:00:02 10° ESE visible
27 Feb - 03:33:19 10° W 03:36:41 22° SSW 03:40:04 10° SSE visible
27 Feb - 21:05:54 10° S 21:08:51 17° SE 21:11:46 10° ESE night (unlit)
27 Feb - 22:45:25 10° SW 22:49:40 44° SSE 22:53:54 10° E night (unlit)
28 Feb - 00:26:32 10° W 00:30:56 61° S 00:35:18 10° ESE night (unlit)
28 Feb - 02:08:01 10° W 02:12:09 38° SSW 02:16:14 10° SE visible
28 Feb - 03:50:41 10° WSW 03:52:50 13° SW 03:54:59 10° S visible
28 Feb - 21:21:17 10° SSW 21:25:03 26° SSE 21:28:47 10° E night (unlit)
28 Feb - 23:01:43 10° WSW 23:06:06 55° S 23:10:25 10° E night (unlit)
29 Feb - 00:43:02 10° W 00:47:23 55° S 00:51:43 10° ESE night (unlit)
29 Feb - 02:24:41 10° W 02:28:26 27° SSW 02:32:10 10° SSE night (unlit)
29 Feb - 19:58:34 10° SSE 20:00:39 13° SE 20:02:43 10° ESE night (unlit)
29 Feb - 21:37:11 10° SW 21:41:20 37° SSE 21:45:27 10° E night (unlit)
29 Feb - 23:18:07 10° WSW 23:22:33 60° S 23:26:55 10° E night (unlit)
01 Mar - 00:59:33 10° W 01:03:48 45° SSW 01:08:02 10° SE night (unlit)
01 Mar - 02:41:39 10° WSW 02:44:39 18° SW 02:47:37 10° S night (unlit)
01 Mar - 20:13:23 10° SSW 20:16:47 21° SSE 20:20:09 10° E night (unlit)
01 Mar - 21:53:22 10° WSW 21:57:43 49° SSE 22:02:01 10° E night (unlit)
01 Mar - 23:34:35 10° W 23:39:00 59° S 23:43:22 10° ESE night (unlit)
02 Mar - 01:16:09 10° W 01:20:09 33° SSW 01:24:08 10° SE night (unlit)
02 Mar - 02:59:49 10° SW 03:00:44 11° SW 03:01:39 10° SSW night (unlit)
02 Mar - 20:29:02 10° SW 20:33:02 31° SSE 20:36:58 10° E night (unlit)
02 Mar - 22:09:43 10° WSW 22:14:09 58° S 22:18:31 10° E night (unlit)
02 Mar - 23:51:05 10° W 23:55:27 52° SSW 23:59:45 10° ESE night (unlit)
03 Mar - 01:32:54 10° W 01:36:25 23° SSW 01:39:54 10° SSE night (unlit)
03 Mar - 19:05:44 10° S 19:08:33 16° SE 19:11:21 10° ESE visible
03 Mar - 20:45:04 10° SW 20:49:21 42° SSE 20:53:35 10° E visible
03 Mar - 22:26:09 10° W 22:30:36 61° S 22:35:00 10° E night (unlit)
04 Mar - 00:07:38 10° W 00:11:50 40° SSW 00:15:59 10° SE night (unlit)
04 Mar - 01:50:06 10° WSW 01:52:34 15° SW 01:55:01 10° S night (unlit)
04 Mar - 19:21:00 10° SSW 19:24:44 25° SSE 19:28:25 10° E visible
04 Mar - 21:01:20 10° WSW 21:05:45 53° SSE 21:10:08 10° E visible
04 Mar - 22:42:38 10° W 22:47:04 57° S 22:51:25 10° ESE night (unlit)
05 Mar - 00:24:16 10° W 00:28:09 29° SSW 00:31:58 10° SSE night (unlit)
05 Mar - 17:58:32 10° SSE 18:00:21 12° SE 18:02:08 10° ESE visible
05 Mar - 19:36:50 10° SW 19:41:01 36° SSE 19:45:08 10° E visible
05 Mar - 21:17:44 10° WSW 21:22:11 60° S 21:26:37 10° E visible
05 Mar - 22:59:09 10° W 23:03:29 47° SSW 23:07:45 10° ESE night (unlit)
06 Mar - 00:41:10 10° W 00:44:21 19° SW 00:47:31 10° S night (unlit)
06 Mar - 18:13:09 10° SSW 18:16:27 20° SE 18:19:45 10° E visible
06 Mar - 19:52:59 10° WSW 19:57:22 47° SSE 20:01:42 10° E visible
06 Mar - 21:34:11 10° W 21:38:40 60° S 21:43:04 10° ESE visible
06 Mar - 23:15:44 10° W 23:19:50 36° SSW 23:23:54 10° SE night (unlit)
07 Mar - 00:58:52 10° WSW 01:00:28 12° SW 01:02:03 10° SSW night (unlit)
07 Mar - 18:28:42 10° SSW 18:32:41 29° SSE 18:36:37 10° E visible
07 Mar - 20:09:19 10° WSW 20:13:48 57° S 20:18:12 10° E visible
07 Mar - 21:50:41 10° W 21:55:07 54° SSW 21:59:28 10° ESE night (unlit)
07 Mar - 23:32:27 10° W 23:36:07 25° SSW 23:39:44 10° SSE night (unlit)
